Flag for United Kingdom Weather past 2 weeks in Newport (Isle of Wight), England, United Kingdom

Now
61 °F

Cool.


Feels Like: 61 °F
Forecast: 58 / 69 °F
Wind: 13 mph from Southwest

Location: Saint Catherine's Point

Current Time: Aug 5, 2015 at 3:44:34 AM

Latest Report: Aug 5, 2015 at 3:00 AM


Visibility: N/A

Pressure: 29.99 "Hg

Humidity: 76%

Dew point: 53 °F

Location of Newport (Isle of Wight)Location

Historic Weather in Newport (Isle of Wight) — Graph

°F

Newport (Isle of Wight) temperature yesterday

Maximum temperature yesterday: 63 °F (at 1:00 PM)
Minimum temperature yesterday: 60 °F (at 9:00 AM)
Average temperature yesterday: 61 °F

Past Weeks' High & Low Weather Summary

 TemperatureHumidityPressure
High69 °F (Aug 2, 3:00 PM)98% (Jul 24, 6:00 PM)30.13 "Hg (Jul 24, 6:00 PM)
Low52 °F (Jul 25, 6:00 AM)50% (Jul 30, 4:00 PM)29.47 "Hg (Jul 26, 8:00 PM)
Average61 °F79%29.92 "Hg
* Reported Jul 21 2:00 AM — Aug 5 2:00 AM, Newport (Isle of Wight), Weather by CustomWeather, © 2015

Note: Actual official high and low records may vary slightly from our data, if they occured in-between our weather recording intervals... More about our weather records

Advertising

Newport (Isle of Wight) weather history for previous 24 hours

 ConditionsComfort  
Time TempWeatherWind HumidityBarometerVisibility
2:00 AM
Wed, Aug 5
61 °FCool.15 mph80%29.99 "HgN/A
1:00 AM61 °FCool.15 mph77%29.99 "HgN/A
12:00 AM61 °FCool.16 mph76%30.01 "HgN/A
11:00 PM
Tue, Aug 4
61 °FCool.17 mph76%30.01 "HgN/A
9:00 PM61 °FCool.24 mph78%30.01 "HgN/A
8:00 PM61 °FCool.25 mph79%30.00 "HgN/A
7:00 PM62 °FCool.26 mph76%30.00 "HgN/A
6:00 PM62 °FCool.24 mph79%29.99 "HgN/A
5:00 PM62 °FMild.26 mph80%29.99 "HgN/A
4:00 PM62 °FCool.24 mph81%29.99 "HgN/A
3:00 PM61 °FCool.24 mph80%29.99 "HgN/A
2:00 PM63 °FMild.26 mph73%29.99 "HgN/A
1:00 PM63 °FMild.28 mph73%29.97 "HgN/A
12:00 PM61 °FCool.26 mph77%29.97 "HgN/A
11:00 AM60 °FCool.28 mph88%29.96 "HgN/A
10:00 AM61 °FCool.21 mph83%29.95 "HgN/A
9:00 AM60 °FCool.22 mph84%29.94 "HgN/A
8:00 AM61 °FCool.23 mph78%29.93 "HgN/A
7:00 AM61 °FCool.21 mph79%29.91 "HgN/A
6:00 AM60 °FCool.22 mph78%29.90 "HgN/A
5:00 AM61 °FCool.18 mph84%29.90 "HgN/A
4:00 AM61 °FCool.18 mph84%29.90 "HgN/A
3:00 AM61 °FCool.20 mph83%29.88 "HgN/A
Weather by CustomWeather, © 2015

See weather overviewHow to use our weather pages